"Pseudo-MPEC" for A10c52D

Created 2019 Feb 20 14:18:03 UT using Find_Orb

Click here for an explanation of pseudo-MPECs

 
 Astrometry: 
     A10c52D  C2019 02 09x+wAstrometry=#i,0/)JiY($;redacted;AvANy6O,\x$%KCWV@T08
     A10c52D  C2019 02 09tt*Mclick#/p67tRXJs,Ic5Vy34hereX8W5IR06O0eVgtMX1!0CLT08
     A10c52D  C2019 02 09O+S+s1D+Fm71]=`H(p5VwmAyWd%nmTne:Gqg2oLYcjy[*forG=7tT08
     A10c52D  C2019 02 09;Qexplanationp0dM3mX4dG3LZO6$(q.P4bAb:%$EO^/:eN'X`;BT08

Station data:
(T08) ATLAS-MLO, Mauna Loa  (N19.535772 W155.576400)  US/Hawaii.

Orbital elements:  A10c52D
   Perihelion 2019 Jan 16.036499 +/- 54.1 TT =  0:52:33 (JD 2458499.536499)
Epoch 2019 Feb 10.0 TT = JDT 2458524.5   Earth MOID: 0.4998   Ma: 0.0273
M   5.60805652 +/- 47               (J2000 ecliptic)          AutoNEOCP
n   0.22465023 +/- 0.271            Peri.  224.44680 +/- 100
a   2.67997942 +/- 2.15             Node   275.13590 +/- 49
e   0.4628811 +/- 0.156             Incl.   16.61413 +/- 7
P   4.39                   H 17.6   G  0.15   U 11.9  SR
q 1.43946744 +/- 0.384    Q 3.92049140 +/- 1.25
From 4 observations 2019 Feb. 9 (38.4 min); mean residual 0".85
Residuals in arcseconds: 
190209 T08  .41+  .55+    190209 T08  1.3-  .86-    
190209 T08  .36-  .67-    190209 T08  1.2+  1.0+    

Ephemerides (geocentric):
Date (UTC) HH   RA              Dec         delta   r     elong  mag " sig PA
---- -- -- --  -------------   -----------  ------ ------ -----  --- ---- ---
2019 02 20 14  11 10 24.117   -36 59 35.88  .63491 1.4802 130.2 18.8  50d 166
2019 02 20 15  11 10 22.968   -37 00 15.43  .63491 1.4803 130.2 18.8  50d 166
2019 02 20 16  11 10 21.817   -37 00 54.90  .63491 1.4804 130.2 18.8  50d 166
2019 02 20 17  11 10 20.663   -37 01 34.28  .63491 1.4805 130.2 18.8  50d 166
2019 02 20 18  11 10 19.507   -37 02 13.57  .63491 1.4806 130.3 18.8  50d 166
2019 02 20 19  11 10 18.347   -37 02 52.78  .63491 1.4807 130.3 18.8  50d 166
2019 02 20 20  11 10 17.185   -37 03 31.90  .63490 1.4808 130.3 18.8  50d 166
2019 02 20 21  11 10 16.020   -37 04 10.93  .63490 1.4809 130.3 18.8  50d 166
2019 02 20 22  11 10 14.853   -37 04 49.88  .63490 1.4810 130.3 18.8  50d 166
2019 02 20 23  11 10 13.683   -37 05 28.74  .63490 1.4811 130.3 18.8  50d 166
2019 02 21 00  11 10 12.510   -37 06 07.51  .63490 1.4812 130.4 18.8  50d 166
2019 02 21 01  11 10 11.334   -37 06 46.20  .63490 1.4813 130.4 18.8  50d 165
2019 02 21 02  11 10 10.156   -37 07 24.80  .63490 1.4813 130.4 18.8  50d 165
2019 02 21 03  11 10 08.975   -37 08 03.31  .63490 1.4814 130.4 18.8  50d 165
2019 02 21 04  11 10 07.791   -37 08 41.73  .63490 1.4815 130.4 18.8  50d 165
2019 02 21 05  11 10 06.605   -37 09 20.07  .63490 1.4816 130.4 18.8  50d 165
2019 02 21 06  11 10 05.416   -37 09 58.32  .63490 1.4817 130.4 18.8  50d 165
2019 02 21 07  11 10 04.225   -37 10 36.49  .63491 1.4818 130.5 18.8  50d 165
2019 02 21 08  11 10 03.030   -37 11 14.56  .63491 1.4819 130.5 18.8  50d 165
2019 02 21 09  11 10 01.834   -37 11 52.55  .63491 1.4820 130.5 18.8  50d 165
2019 02 21 10  11 10 00.634   -37 12 30.45  .63491 1.4821 130.5 18.8  50d 165
2019 02 21 11  11 09 59.432   -37 13 08.27  .63491 1.4822 130.5 18.8  50d 165
2019 02 21 12  11 09 58.227   -37 13 46.00  .63491 1.4823 130.5 18.8  50d 165
2019 02 21 13  11 09 57.020   -37 14 23.64  .63491 1.4824 130.6 18.8  50d 165
2019 02 21 14  11 09 55.810   -37 15 01.19  .63492 1.4825 130.6 18.8  50d 165
2019 02 21 15  11 09 54.598   -37 15 38.65  .63492 1.4826 130.6 18.8  50d 165
2019 02 21 16  11 09 53.383   -37 16 16.03  .63492 1.4827 130.6 18.8  50d 165
2019 02 21 17  11 09 52.165   -37 16 53.32  .63492 1.4828 130.6 18.8  50d 165
2019 02 21 18  11 09 50.945   -37 17 30.52  .63493 1.4829 130.6 18.8  50d 165
2019 02 21 19  11 09 49.722   -37 18 07.64  .63493 1.4830 130.6 18.8  50d 165
2019 02 21 20  11 09 48.497   -37 18 44.67  .63493 1.4831 130.7 18.8  50d 165
2019 02 21 21  11 09 47.269   -37 19 21.60  .63493 1.4832 130.7 18.8  50d 165
2019 02 21 22  11 09 46.039   -37 19 58.46  .63494 1.4833 130.7 18.8  50d 165
2019 02 21 23  11 09 44.806   -37 20 35.22  .63494 1.4834 130.7 18.8  50d 164
2019 02 22 00  11 09 43.570   -37 21 11.90  .63494 1.4834 130.7 18.8  50d 164
2019 02 22 01  11 09 42.332   -37 21 48.48  .63495 1.4835 130.7 18.8  50d 164
2019 02 22 02  11 09 41.092   -37 22 24.98  .63495 1.4836 130.7 18.8  50d 164
2019 02 22 03  11 09 39.849   -37 23 01.40  .63496 1.4837 130.8 18.8  50d 164
2019 02 22 04  11 09 38.603   -37 23 37.72  .63496 1.4838 130.8 18.8  50d 164
2019 02 22 05  11 09 37.355   -37 24 13.96  .63497 1.4839 130.8 18.8  50d 164
2019 02 22 06  11 09 36.105   -37 24 50.11  .63497 1.4840 130.8 18.8  50d 164
2019 02 22 07  11 09 34.852   -37 25 26.17  .63497 1.4841 130.8 18.8  50d 164
2019 02 22 08  11 09 33.596   -37 26 02.14  .63498 1.4842 130.8 18.8  50d 164
2019 02 22 09  11 09 32.338   -37 26 38.02  .63498 1.4843 130.9 18.8  50d 164
2019 02 22 10  11 09 31.078   -37 27 13.82  .63499 1.4844 130.9 18.8  50d 164
2019 02 22 11  11 09 29.815   -37 27 49.53  .63500 1.4845 130.9 18.8  50d 164
2019 02 22 12  11 09 28.550   -37 28 25.15  .63500 1.4846 130.9 18.8  50d 164
2019 02 22 13  11 09 27.282   -37 29 00.68  .63501 1.4847 130.9 18.8  50d 164